Home > Weather > Constanța > Past weeks

Flag for Romania Weather for the Past 2 Weeks in Constanța, Romania

Now
45 °F

Overcast.


Feels Like: 43 °F
Forecast: 41 / 45 °F
Wind: 3 mph from West

Location: Constanta

Current Time: Feb 11, 2016 at 9:20:16 AM

Latest Report: Feb 11, 2016 at 8:00 AM


Visibility: 6 mi

Pressure: 29.62 "Hg

Humidity: 87%

Dew point: 41 °F

Location of ConstanțaLocation

Historic Weather in Constanța — Graph

°F

Constanța Temperature Yesterday

Maximum temperature yesterday: 51 °F (at 1:00 PM)
Minimum temperature yesterday: 40 °F (at 1:00 AM)
Average temperature yesterday: 47 °F

High & Low Weather Summary for the Past Weeks

 TemperatureHumidityPressure
High66 °F (Feb 3, 1:00 PM)99% (Jan 27, 8:00 AM)30.45 "Hg (Jan 27, 8:00 AM)
Low29 °F (Jan 27, 8:00 AM)46% (Feb 3, 2:00 PM)29.59 "Hg (Feb 10, 10:00 PM)
Average44 °F77%30.15 "Hg
* Reported Jan 27 8:00 AM — Feb 11 8:00 AM, Constanța, Weather by CustomWeather, © 2016

Note: Actual official high and low records may vary slightly from our data, if they occured in-between our weather recording intervals... More about our weather records

Advertising

Constanța Weather History for the Previous 24 Hours

 ConditionsComfort  
Time TempWeatherWind HumidityBarometerVisibility
8:00 AM
Thu, Feb 11
45 °FOvercast.3 mph87%29.62 "Hg6 mi
6:00 AM46 °FLight rain. Overcast.6 mph89%29.60 "Hg6 mi
10:00 PM
Wed, Feb 10
50 °FPassing clouds.3 mph78%29.59 "Hg6 mi
9:00 PM50 °FOvercast.3 mph80%29.60 "Hg6 mi
8:00 PM50 °FOvercast.3 mph78%29.62 "Hg6 mi
7:00 PM49 °FPassing clouds.3 mph78%29.64 "Hg6 mi
6:00 PM49 °FPassing clouds.3 mph79%29.65 "Hg6 mi
5:00 PM49 °FOvercast.3 mph79%29.67 "Hg6 mi
4:00 PM50 °FLow clouds.3 mph76%29.67 "Hg6 mi
3:00 PM50 °FPartly sunny.3 mph75%29.69 "Hg6 mi
2:00 PM50 °FPartly sunny.3 mph76%29.71 "Hg6 mi
1:00 PM51 °FPartly sunny.3 mph76%29.74 "Hg6 mi
12:00 PM49 °FPartly sunny.5 mph82%29.77 "Hg6 mi
11:00 AM49 °FPartly sunny.3 mph84%29.79 "Hg6 mi
10:00 AM47 °FPartly sunny.3 mph89%29.81 "Hg6 mi
9:00 AM45 °FPartly sunny.2 mph89%29.84 "Hg6 mi
Weather by CustomWeather, © 2016

See weather overviewHow to use our weather pages